Matala Airport

Jump to: basic info | weather | runways | comments

Related pages: nearby airports | nearby navaids | notams | map

Basic information (top)

Codes: FN18
Location: lon -14.727500, lat 15.014000, elev 4,120 ft / 1,256 m msl
Status: small_airport

Weather (top)

Current conditions for Lubango Airport 84nm (156km) W (rec'd 2014/10/31 12:00Z):

FNUB 311200Z 09010KT 9999 FEW020 FEW025CB BKN030 22/15 Q1022

Airport forecast for Lubango Airport 84nm (156km) W (rec'd 2014/10/31 12:00Z):

TAF FNUB 311200Z 3112/3124 VRB03KT 9999 SCT030 BKN040 
      BECMG 3112/3114 27010G15KT 9000 NSC 
      TEMPO 3115/3120 8000 -RA SCT015 BKN020

Runways (top)

10/28: 8,015 x 98 ft (2,443 x 30 m) — paved — not lighted

Latest comments (top)

No comments yet for Matala Airport

More... (top)

See also NOTAMs and nearby airports and navaids, or visit the Matala Airport page at the main OurAirports website..